Location: NCO
(38.4404°N, 77.1340°W)
Time: 12:05:40
(UTC-04:00)

Envisat - Visible Passes

Search period start: 24 March 2017 00:00
Search period end: 03 April 2017 00:00
Orbit: 764 x 766 km, 98.2° (Epoch: 22 March)

Date Brightness Start Highest point End Pass type
(mag) Time Alt. Az. Time Alt. Az. Time Alt. Az.
24 Mar 2.9 21:17:16 41° SSE 21:19:05 84° ENE 21:24:11 10° N visible
25 Mar 3.6 20:40:01 23° ESE 20:42:32 37° ENE 20:47:11 10° N visible
25 Mar 4.9 22:20:13 21° WSW 22:21:37 24° W 22:25:40 10° NW visible
26 Mar 4.5 20:02:58 10° ESE 20:06:11 17° ENE 20:09:26 10° NNE visible
26 Mar 3.6 21:42:59 36° SSW 21:44:44 54° W 21:49:43 10° NNW visible
27 Mar 2.9 21:05:45 32° SE 21:08:03 66° ENE 21:13:06 10° N visible
27 Mar 5.6 22:45:57 12° WSW 22:47:29 13° W 22:49:47 10° WNW visible
28 Mar 3.9 20:28:31 17° ESE 20:31:34 29° ENE 20:35:54 10° N visible
28 Mar 4.6 22:08:43 24° SW 22:10:28 30° W 22:14:56 10° NW visible
29 Mar 4.8 19:52:48 10° E 19:55:16 14° ENE 19:57:45 10° NNE visible
29 Mar 3.2 21:31:29 34° S 21:33:39 70° WSW 21:38:44 10° NNW visible
30 Mar 3.2 20:54:15 25° SE 20:57:01 51° ENE 21:01:57 10° N visible
30 Mar 5.4 22:34:27 14° WSW 22:36:19 17° W 22:39:33 10° NW visible
31 Mar 4.2 20:17:02 12° ESE 20:20:36 24° ENE 20:24:34 10° NNE visible
31 Mar 4.2 21:57:13 26° SW 21:59:22 38° W 22:04:06 10° NNW visible
01 Apr 2.9 21:19:59 30° SSE 21:22:36 89° W 21:27:42 10° NNW visible
02 Apr 3.5 20:42:46 19° SE 20:46:01 40° ENE 20:50:45 10° N visible
02 Apr 5.1 22:22:57 17° SW 22:25:09 21° W 22:29:01 10° NW visible
